TimeEEST,TemperatureF,Dew PointF,Humidity,Sea Level PressureIn,VisibilityMPH,Wind Direction,Wind SpeedMPH,Gust SpeedMPH,PrecipitationIn,Events,Conditions,WindDirDegrees,DateUTC
12:20 AM,46.4,46.4,100,29.95,2.5,Calm,Calm,-,N/A,,Mostly Cloudy,0,2013-04-10 21:20:00
12:50 AM,46.4,46.4,100,29.95,1.9,Variable,1.2,-,N/A,,Mostly Cloudy,0,2013-04-10 21:50:00
1:20 AM,46.4,46.4,100,29.95,1.9,Variable,1.2,-,N/A,,Mostly Cloudy,0,2013-04-10 22:20:00
1:50 AM,44.6,44.6,100,29.95,1.0,Calm,Calm,-,N/A,,Mostly Cloudy,0,2013-04-10 22:50:00
2:15 AM,46.4,44.6,93,29.92,0.6,Calm,Calm,-,N/A,Fog,Patches of Fog,0,2013-04-10 23:15:00
2:20 AM,44.6,44.6,100,29.92,0.3,Calm,Calm,-,N/A,Fog,Fog,0,2013-04-10 23:20:00
3:20 AM,44.6,44.6,100,29.92,0.3,Calm,Calm,-,N/A,Fog,Fog,0,2013-04-11 00:20:00
3:26 AM,44.6,44.6,100,29.92,0.7,Calm,Calm,-,N/A,Fog,Patches of Fog,0,2013-04-11 00:26:00
3:50 AM,44.6,44.6,100,29.92,1.2,Calm,Calm,-,N/A,,Scattered Clouds,0,2013-04-11 00:50:00
4:20 AM,44.6,44.6,100,29.92,1.2,South,2.3,-,N/A,,Scattered Clouds,170,2013-04-11 01:20:00
4:50 AM,44.6,44.6,100,29.92,1.1,South,3.5,-,N/A,,Scattered Clouds,180,2013-04-11 01:50:00
5:20 AM,42.8,42.8,100,29.92,1.0,WNW,3.5,-,N/A,,Scattered Clouds,290,2013-04-11 02:20:00
5:50 AM,46.4,46.4,100,29.92,1.6,Calm,Calm,-,N/A,,Scattered Clouds,0,2013-04-11 02:50:00
6:20 AM,44.6,44.6,100,29.92,1.2,Calm,Calm,-,N/A,,Mostly Cloudy,0,2013-04-11 03:20:00
6:50 AM,46.4,46.4,100,29.92,1.2,Variable,1.2,-,N/A,,Mostly Cloudy,0,2013-04-11 03:50:00
7:20 AM,48.2,48.2,100,29.92,1.2,South,3.5,-,N/A,,Mostly Cloudy,190,2013-04-11 04:20:00
7:50 AM,48.2,48.2,100,29.92,1.6,SSW,3.5,-,N/A,,Mostly Cloudy,200,2013-04-11 04:50:00
8:20 AM,50.0,50.0,100,29.92,1.4,Variable,2.3,-,N/A,,Mostly Cloudy,0,2013-04-11 05:20:00
8:50 AM,51.8,51.8,100,29.92,1.9,SW,5.8,-,N/A,,Mostly Cloudy,230,2013-04-11 05:50:00
9:20 AM,51.8,51.8,100,29.95,1.9,WSW,9.2,-,N/A,,Mostly Cloudy,250,2013-04-11 06:20:00
9:50 AM,51.8,51.8,100,29.95,1.9,West,8.1,-,N/A,,Mostly Cloudy,270,2013-04-11 06:50:00
10:20 AM,53.6,51.8,94,29.95,2.2,West,6.9,-,N/A,,Mostly Cloudy,260,2013-04-11 07:20:00
10:50 AM,55.4,51.8,88,29.98,2.5,WNW,8.1,-,N/A,,Mostly Cloudy,300,2013-04-11 07:50:00
11:20 AM,55.4,50.0,82,29.98,3.7,WNW,9.2,-,N/A,,Mostly Cloudy,290,2013-04-11 08:20:00
11:50 AM,57.2,51.8,82,29.98,3.7,NW,9.2,-,N/A,,Mostly Cloudy,320,2013-04-11 08:50:00
12:20 PM,59.0,50.0,72,29.98,3.7,WNW,9.2,-,N/A,,Mostly Cloudy,290,2013-04-11 09:20:00
12:50 PM,59.0,50.0,72,29.98,3.7,NW,8.1,-,N/A,,Mostly Cloudy,320,2013-04-11 09:50:00
1:20 PM,59.0,50.0,72,29.98,3.7,NNW,9.2,-,N/A,,Mostly Cloudy,340,2013-04-11 10:20:00
1:50 PM,60.8,50.0,68,29.98,4.3,Variable,5.8,-,N/A,,Mostly Cloudy,0,2013-04-11 10:50:00
2:20 PM,59.0,50.0,72,29.98,4.3,ENE,6.9,-,N/A,,Mostly Cloudy,70,2013-04-11 11:20:00
2:50 PM,62.6,51.8,68,29.98,4.3,Variable,2.3,-,N/A,,Mostly Cloudy,0,2013-04-11 11:50:00
3:20 PM,60.8,48.2,63,29.98,4.3,Variable,3.5,-,N/A,,Mostly Cloudy,0,2013-04-11 12:20:00
3:50 PM,60.8,51.8,72,29.98,5.0,SE,5.8,-,N/A,,Scattered Clouds,130,2013-04-11 12:50:00
4:20 PM,59.0,51.8,77,29.98,5.0,SE,8.1,-,N/A,,Scattered Clouds,140,2013-04-11 13:20:00
4:30 PM,59.0,53.6,82,29.98,5.0,SSE,9.2,-,N/A,Rain,Light Rain Showers,150,2013-04-11 13:30:00
4:46 PM,57.2,51.8,82,29.98,5.0,SE,10.4,-,N/A,,Scattered Clouds,140,2013-04-11 13:46:00
4:50 PM,57.2,51.8,82,29.98,5.0,SE,10.4,-,N/A,,Scattered Clouds,140,2013-04-11 13:50:00
5:20 PM,59.0,51.8,77,29.98,5.0,SE,10.4,-,N/A,,Scattered Clouds,140,2013-04-11 14:20:00
5:50 PM,57.2,50.0,77,29.98,5.0,SE,10.4,-,N/A,,Scattered Clouds,130,2013-04-11 14:50:00
6:20 PM,57.2,50.0,77,29.98,5.0,SE,11.5,-,N/A,,Scattered Clouds,140,2013-04-11 15:20:00
6:50 PM,55.4,50.0,82,29.98,5.0,SE,9.2,-,N/A,,Scattered Clouds,130,2013-04-11 15:50:00
7:20 PM,53.6,50.0,88,29.98,5.0,SE,6.9,-,N/A,,Scattered Clouds,130,2013-04-11 16:20:00
7:50 PM,51.8,50.0,94,30.01,3.7,SSE,5.8,-,N/A,,Scattered Clouds,150,2013-04-11 16:50:00
8:20 PM,51.8,50.0,94,30.01,3.1,SE,5.8,-,N/A,,Scattered Clouds,130,2013-04-11 17:20:00
8:50 PM,50.0,50.0,100,30.04,3.7,East,6.9,-,N/A,,Scattered Clouds,90,2013-04-11 17:50:00
9:20 PM,50.0,50.0,100,30.04,3.7,East,5.8,-,N/A,,Scattered Clouds,80,2013-04-11 18:20:00
9:50 PM,50.0,48.2,94,30.04,3.7,East,5.8,-,N/A,,Scattered Clouds,90,2013-04-11 18:50:00
10:20 PM,48.2,46.4,93,30.06,5.0,ENE,8.1,-,N/A,,Scattered Clouds,70,2013-04-11 19:20:00
10:50 PM,48.2,46.4,93,30.06,5.0,ENE,6.9,-,N/A,,Scattered Clouds,70,2013-04-11 19:50:00
11:20 PM,48.2,46.4,93,30.06,5.0,Variable,2.3,-,N/A,,Mostly Cloudy,0,2013-04-11 20:20:00
11:50 PM,48.2,46.4,93,30.06,5.0,East,5.8,-,N/A,,Scattered Clouds,100,2013-04-11 20:50:00